Location: Newark
(27.2452°N, 107.0032°W)
Time: 11:17:26
(UTC+00:00)

Hubble Space Telescope - Pass Details

Date: 21 December 2019
Orbit: 536 x 540 km, 28.5° (Epoch: 22 January)

Event Time Altitude Azimuth Distance (km) Brightness Sun altitude
Exits shadow 12:01:55 68° 62° (ENE) 577 0.9 -24.0°
Drops below altitude 10° 12:05:37 10° 92° (E) 1,785 4.5 -23.2°
Sets 12:07:53 0° 93° (E) 2,675 5.7 -22.7°
